Viroqua, WI

4:05 PM CDT on April 28, 2017 (GMT -0500)
Viroqua

Weather History for KY51 - March, 2013

Change the Weather History Date:

Saturday, March 9, 2013

  Actual Average (KCMY) Record (KCMY)
Temperature  
Mean Temperature 32 °F -  
Max Temperature 37 °F 40 °F 65 °F (1987)
Min Temperature 30 °F 17 °F -14 °F (1975)
Degree Days  
Heating Degree Days 32    
Moisture  
Dew Point 33 °F    
Average Humidity 95    
Maximum Humidity 100    
Minimum Humidity 87    
Precipitation  
Precipitation 0.18 in - - ()
Sea Level Pressure  
Sea Level Pressure 29.91 in    
Wind  
Wind Speed 13 mph (SSE)    
Max Wind Speed 26 mph    
Max Gust Speed 33 mph    
Visibility 4 miles    
Events      
Averages and records for this station are not official NWS values.
T = Trace of Precipitation, MM = Missing Value Source: NWS Daily Summary

Daily Weather History Graph

Daily Weather History Graph

Search for Another Location

Airport or City:

Trip Planner

Search our weather history database for the weather conditions in past years. The results will help you decide how hot, cold, wet, or windy it might be!

Date:

Astronomy

Mar. 09, 2013 Rise Set
Actual Time 6:25 AM CST 6:02 PM CST
Civil Twilight 5:57 AM CST 6:31 PM CST
Nautical Twilight 5:24 AM CST 7:04 PM CST
Astronomical Twilight 4:50 AM CST 7:38 PM CST
Moon 4:53 AM CST (3/9) 4:02 PM CST (3/9)
Length of Visible Light 12h 34m
Length of Day
11h 36m
Waning Crescent, 5% of the Moon is Illuminated
Mar 9
Waning Crescent
Mar 11
New
Mar 19
First Quarter
Mar 27
Full
Apr 2
Last Quarter

Hourly Weather History & Observations

Time (CST) Temp. Windchill Dew Point Humidity Pressure Visibility Wind Dir Wind Speed Gust Speed Precip Events Conditions
12:15 AM 30.2 °F 20.8 °F 28.4 °F 93% 30.17 in 7.0 mi SE 11.5 mph - N/A   Clear
12:35 AM 30.2 °F 19.8 °F 28.4 °F 93% 30.16 in 7.0 mi SE 13.8 mph - N/A   Clear
12:55 AM 32.0 °F 22.5 °F 28.4 °F 87% 30.15 in 7.0 mi SE 12.7 mph - N/A   Clear
1:15 AM 32.0 °F 22.5 °F 28.4 °F 87% 30.14 in 7.0 mi SE 12.7 mph - N/A   Mostly Cloudy
1:35 AM 32.0 °F 22.1 °F 28.4 °F 87% 30.13 in 7.0 mi SE 13.8 mph - N/A   Overcast
1:55 AM 32.0 °F 21.2 °F 28.4 °F 87% 30.11 in 7.0 mi SE 16.1 mph - N/A   Overcast
2:15 AM 32.0 °F 21.6 °F 28.4 °F 87% 30.10 in 7.0 mi SE 15.0 mph 20.7 mph N/A   Overcast
2:35 AM 32.0 °F 21.6 °F 28.4 °F 87% 30.09 in 7.0 mi SE 15.0 mph - N/A   Overcast
2:55 AM 32.0 °F 22.5 °F 28.4 °F 87% 30.08 in 10.0 mi SSE 12.7 mph - N/A   Overcast
3:15 AM 32.0 °F 22.5 °F 28.4 °F 87% 30.08 in 7.0 mi SSE 12.7 mph - N/A   Overcast
3:35 AM 32.0 °F 22.1 °F 28.4 °F 87% 30.07 in 7.0 mi SSE 13.8 mph - N/A   Overcast
3:55 AM 32.0 °F 23.6 °F 28.4 °F 87% 30.08 in 7.0 mi SSE 10.4 mph - N/A   Overcast
4:15 AM 32.0 °F 24.2 °F 28.4 °F 87% 30.08 in 10.0 mi SSE 9.2 mph - N/A   Overcast
4:35 AM 32.0 °F 24.8 °F 28.4 °F 87% 30.08 in 7.0 mi SE 8.1 mph - N/A   Overcast
4:55 AM 32.0 °F 24.8 °F 28.4 °F 87% 30.07 in 10.0 mi SE 8.1 mph - N/A   Overcast
5:15 AM 32.0 °F 24.2 °F 28.4 °F 87% 30.07 in 7.0 mi SE 9.2 mph - N/A   Overcast
5:35 AM 32.0 °F 23.6 °F 28.4 °F 87% 30.06 in 10.0 mi SE 10.4 mph - N/A   Overcast
5:55 AM 32.0 °F 23.0 °F 28.4 °F 87% 30.06 in 10.0 mi SSE 11.5 mph - N/A   Overcast
6:15 AM 32.0 °F 23.0 °F 28.4 °F 87% 30.06 in 7.0 mi SE 11.5 mph - N/A   Overcast
6:35 AM 33.8 °F 23.5 °F 30.2 °F 87% 30.04 in 7.0 mi SE 16.1 mph - N/A   Overcast
6:55 AM 33.8 °F 22.5 °F 30.2 °F 87% 30.03 in 4.0 mi SSE 19.6 mph 25.3 mph N/A   Overcast
7:15 AM 33.8 °F 22.2 °F 32.0 °F 93% 30.00 in 3.0 mi SE 20.7 mph 27.6 mph N/A   Overcast
7:35 AM 33.8 °F 20.8 °F 32.0 °F 93% 29.97 in 2.5 mi SE 26.5 mph 29.9 mph 0.02 in   Overcast
7:55 AM 33.8 °F 20.8 °F 32.0 °F 93% 29.97 in 5.0 mi SE 26.5 mph 33.4 mph 0.02 in   Overcast
8:15 AM 33.8 °F 22.5 °F 32.0 °F 93% 29.97 in 4.0 mi SSE 19.6 mph 26.5 mph N/A   Overcast
8:35 AM 35.6 °F 24.2 °F 32.0 °F 87% 29.98 in 5.0 mi SSE 21.9 mph - N/A   Overcast
8:55 AM 35.6 °F 25.9 °F 32.0 °F 87% 29.96 in 4.0 mi SE 16.1 mph - N/A   Overcast
9:15 AM 33.8 °F 24.3 °F 32.0 °F 93% 29.96 in 5.0 mi SSE 13.8 mph 21.9 mph N/A   Overcast
9:35 AM 33.8 °F 23.2 °F 32.0 °F 93% 29.96 in 5.0 mi SSE 17.3 mph 21.9 mph N/A   Overcast
9:55 AM 35.6 °F 26.2 °F 32.0 °F 87% 29.94 in 5.0 mi SE 15.0 mph 19.6 mph N/A   Overcast
10:15 AM 35.6 °F 26.2 °F 32.0 °F 87% 29.94 in 5.0 mi SSE 15.0 mph - N/A   Overcast
10:35 AM 35.6 °F 25.9 °F 32.0 °F 87% 29.93 in 5.0 mi SE 16.1 mph 20.7 mph N/A   Overcast
10:55 AM 35.6 °F 26.2 °F 32.0 °F 87% 29.93 in 4.0 mi SSE 15.0 mph 21.9 mph N/A   Overcast
11:15 AM 35.6 °F 26.6 °F 33.8 °F 93% 29.92 in 2.5 mi SSE 13.8 mph 23.0 mph N/A   Overcast
11:35 AM 35.6 °F 26.2 °F 35.6 °F 100% 29.90 in 2.0 mi SSE 15.0 mph 23.0 mph N/A   Overcast
11:55 AM 35.6 °F 25.9 °F 35.6 °F 100% 29.89 in 1.8 mi SSE 16.1 mph - N/A   Overcast
12:15 PM 35.6 °F 26.6 °F 35.6 °F 100% 29.87 in 1.8 mi SSE 13.8 mph 20.7 mph N/A   Overcast
12:35 PM 35.6 °F 25.9 °F 35.6 °F 100% 29.86 in 2.0 mi SSE 16.1 mph 23.0 mph N/A   Overcast
12:55 PM 35.6 °F 25.9 °F 35.6 °F 100% 29.86 in 2.5 mi SSE 16.1 mph 20.7 mph N/A   Overcast
1:15 PM 35.6 °F 27.5 °F 35.6 °F 100% 29.84 in 1.8 mi SSE 11.5 mph - N/A   Overcast
1:35 PM 35.6 °F 27.1 °F 35.6 °F 100% 29.84 in 1.8 mi SSE 12.7 mph - N/A   Overcast
1:55 PM 35.6 °F 26.6 °F 35.6 °F 100% 29.83 in 2.0 mi SSE 13.8 mph - N/A   Overcast
2:15 PM 35.6 °F 26.6 °F 35.6 °F 100% 29.81 in 1.8 mi SSE 13.8 mph 17.3 mph N/A   Overcast
2:35 PM 35.6 °F 27.5 °F 35.6 °F 100% 29.81 in 1.8 mi SSE 11.5 mph - 0.03 in   Overcast
3:15 PM 35.6 °F 26.2 °F 35.6 °F 100% 29.78 in 2.0 mi SSE 15.0 mph 20.7 mph 0.02 in   Overcast
3:35 PM 35.6 °F 26.6 °F 35.6 °F 100% 29.78 in 3.0 mi SSE 13.8 mph - 0.03 in   Overcast
3:55 PM 35.6 °F 27.5 °F 35.6 °F 100% 29.77 in 4.0 mi SSE 11.5 mph 18.4 mph 0.03 in   Overcast
4:15 PM 35.6 °F 27.1 °F 35.6 °F 100% 29.77 in 3.0 mi SSE 12.7 mph - 0.01 in   Overcast
4:35 PM 35.6 °F 27.1 °F 35.6 °F 100% 29.75 in 3.0 mi SSE 12.7 mph 17.3 mph 0.01 in   Overcast
4:55 PM 35.6 °F 26.2 °F 35.6 °F 100% 29.76 in 3.0 mi SSE 15.0 mph - 0.01 in   Overcast
5:15 PM 35.6 °F 27.5 °F 35.6 °F 100% 29.77 in 3.0 mi South 11.5 mph 21.9 mph 0.01 in   Overcast
5:35 PM 35.6 °F 26.6 °F 35.6 °F 100% 29.77 in 2.5 mi South 13.8 mph - 0.02 in   Overcast
5:55 PM 35.6 °F 27.1 °F 35.6 °F 100% 29.77 in 2.5 mi South 12.7 mph - 0.04 in   Overcast
6:15 PM 35.6 °F 27.1 °F 35.6 °F 100% 29.77 in 3.0 mi South 12.7 mph - N/A   Overcast
6:35 PM 35.6 °F 27.5 °F 35.6 °F 100% 29.76 in 4.0 mi South 11.5 mph - 0.01 in   Overcast
6:55 PM 35.6 °F 26.6 °F 35.6 °F 100% 29.76 in 5.0 mi SSE 13.8 mph - 0.01 in   Overcast
7:15 PM 35.6 °F 27.1 °F 35.6 °F 100% 29.76 in 4.0 mi SSE 12.7 mph - N/A   Overcast
7:35 PM 35.6 °F 26.6 °F 35.6 °F 100% 29.76 in 3.0 mi SSE 13.8 mph - N/A   Overcast
7:55 PM 35.6 °F 27.1 °F 35.6 °F 100% 29.76 in 3.0 mi South 12.7 mph - N/A   Overcast
8:15 PM 35.6 °F 27.1 °F 35.6 °F 100% 29.76 in 2.5 mi SSE 12.7 mph - N/A   Overcast
8:35 PM 35.6 °F 27.1 °F 35.6 °F 100% 29.75 in 2.5 mi SSE 12.7 mph - 0.01 in   Overcast
8:55 PM 35.6 °F 26.6 °F 35.6 °F 100% 29.75 in 4.0 mi South 13.8 mph 18.4 mph 0.02 in   Overcast
9:15 PM 35.6 °F 26.6 °F 35.6 °F 100% 29.75 in 4.0 mi South 13.8 mph - N/A   Overcast
9:35 PM 35.6 °F 27.1 °F 35.6 °F 100% 29.75 in 3.0 mi South 12.7 mph - N/A   Overcast
9:55 PM 35.6 °F 28.6 °F 35.6 °F 100% 29.76 in 2.5 mi South 9.2 mph - N/A   Overcast
10:15 PM 35.6 °F 32.8 °F 35.6 °F 100% 29.76 in 1.8 mi SSW 3.5 mph - N/A   Overcast
10:35 PM 35.6 °F 32.8 °F 35.6 °F 100% 29.76 in 0.8 mi South 3.5 mph - N/A   Overcast
10:55 PM 35.6 °F 30.7 °F 35.6 °F 100% 29.74 in 0.8 mi SSE 5.8 mph - 0.01 in   Overcast
11:15 PM 35.6 °F 31.7 °F 35.6 °F 100% 29.74 in 0.5 mi SE 4.6 mph - N/A   Overcast
11:35 PM 35.6 °F 32.8 °F 35.6 °F 100% 29.74 in 0.2 mi SSE 3.5 mph - N/A   Overcast
11:55 PM 37.4 °F - 37.4 °F 100% 29.74 in 0.2 mi Calm Calm - 0.01 in   Overcast